Theta_e
322 321 318 315 316 317 319 319 317 311 307 308 308 308 309 308 309 309 309 309 309 309 309 309 309 309 309 309 309 309 309 310 310 308 309 309 309 310 310 311 311 313 313 313 311 311 311 312 312 311 312 312 312 312 311 312 310 316 327 327 320 317 315 311 311 310 310 312 307 305 306 306 307 307 306 306 307 307 307 306 307 306 307 307 307 307 307 307
321 320 318 317 317 316 316 317 319 315 309 307 308 309 309 308 309 309 309 309 309 309 310 309 310 310 309 310 309 309 309 310 310 308 308 308 309 310 310 310 311 312 311 311 310 310 310 310 311 310 311 311 311 311 310 311 310 317 327 326 323 320 311 306 307 306 307 309 306 305 306 306 308 307 306 308 307 307 307 307 306 307 308 307 308 307 307 307
320 320 318 317 317 317 316 314 314 313 310 308 307 309 310 308 309 309 309 309 309 309 310 310 310 310 310 310 309 310 309 309 310 308 308 307 308 310 310 310 310 311 311 311 310 310 310 310 310 310 311 311 310 310 309 310 309 311 320 329 326 315 307 305 306 306 307 307 305 305 305 306 308 307 307 308 307 306 306 307 307 307 308 308 308 308 307 307
322 321 319 317 317 318 318 314 312 309 308 308 307 310 310 308 309 309 308 309 309 310 310 310 310 310 310 310 310 310 308 311 311 307 308 308 308 309 309 310 309 310 310 310 311 310 310 310 310 310 310 310 309 309 308 309 309 308 315 324 315 306 306 307 306 306 307 307 305 305 306 307 307 307 307 306 307 307 306 307 308 308 308 308 308 308 308 307
322 322 321 317 316 319 320 316 312 309 307 308 308 309 308 307 308 308 308 309 309 310 310 310 310 310 310 310 310 309 309 313 312 307 308 308 308 308 308 310 310 310 310 310 311 310 310 310 311 310 310 310 309 309 308 308 309 308 309 309 306 304 307 307 306 307 306 306 306 305 306 307 307 307 307 306 307 308 307 307 308 307 308 308 307 307 307 307
323 322 320 315 313 319 319 314 311 308 307 308 309 308 307 307 308 308 308 308 309 309 309 310 310 310 310 309 309 310 310 311 310 307 308 308 308 308 308 309 309 310 309 310 311 310 310 310 311 310 309 309 309 309 308 307 308 311 308 304 305 305 306 307 306 307 306 306 306 306 306 306 306 307 307 306 307 307 307 308 308 307 308 307 307 307 307 307
323 322 318 311 312 318 317 312 309 307 307 308 308 307 307 307 308 309 309 308 309 309 310 310 311 311 311 310 308 308 309 309 308 307 308 308 308 308 308 308 309 309 309 310 310 310 310 311 310 310 310 308 308 308 308 307 307 313 310 304 305 305 305 306 306 307 307 307 307 306 306 306 306 307 307 306 307 307 307 308 307 308 308 307 307 307 306 306
321 320 317 312 312 316 314 310 307 306 307 308 308 308 308 307 308 309 309 309 308 309 310 311 311 311 311 312 311 309 308 308 307 307 308 308 308 308 308 308 308 309 309 309 310 311 311 311 310 309 309 309 309 308 307 307 307 311 310 305 305 306 305 306 306 306 306 306 307 306 306 306 306 306 305 307 308 308 308 308 308 307 308 307 307 307 307 306
315 312 313 313 312 311 310 307 306 307 308 308 308 308 308 308 309 309 309 309 309 309 310 311 310 310 310 311 314 312 308 308 307 307 307 308 308 308 308 308 308 308 308 309 310 311 312 311 310 310 309 308 308 308 307 309 308 307 306 305 305 305 304 305 305 305 306 306 306 306 306 306 306 306 307 308 308 309 309 308 308 308 307 307 307 307 307 306
307 305 308 310 309 308 307 306 307 307 307 308 309 309 309 309 310 310 310 310 310 310 310 310 309 310 310 310 313 312 308 308 308 307 308 308 308 308 309 309 308 308 308 309 310 311 312 311 310 310 309 309 308 307 306 309 309 306 305 305 305 305 305 306 306 306 306 306 306 307 307 306 305 307 310 310 309 308 309 308 308 308 307 307 307 307 307 307
305 305 305 306 306 306 306 306 307 306 307 308 308 309 309 310 310 310 311 311 311 310 310 311 310 310 310 310 311 310 308 308 308 308 308 308 308 309 309 309 309 309 308 309 309 310 310 310 310 310 309 309 308 307 306 306 307 305 305 306 305 305 306 306 306 306 306 306 306 306 306 306 305 307 311 309 309 309 308 308 308 307 307 307 307 307 307 308
305 305 305 305 305 306 306 306 306 306 308 308 309 310 310 310 310 310 310 311 311 311 311 311 311 311 310 310 310 309 309 308 308 308 308 308 309 309 309 309 309 309 309 308 308 309 309 310 310 311 310 308 308 308 307 306 306 305 306 309 307 307 308 305 306 306 306 307 306 306 307 309 308 309 310 309 309 310 308 309 308 307 307 307 307 307 308 309
305 305 305 305 305 305 306 306 305 306 308 309 309 310 310 310 310 310 311 311 311 311 311 311 311 311 310 310 310 310 310 309 309 308 308 309 308 309 309 309 309 309 309 308 309 309 310 311 310 311 309 307 308 307 307 305 306 307 306 309 311 314 313 305 305 307 306 308 306 306 313 318 316 311 309 310 309 309 309 309 308 308 308 307 307 308 308 309
306 306 305 305 305 305 305 305 306 308 309 309 310 310 310 311 310 311 311 311 311 311 311 311 310 311 310 310 311 311 310 310 309 309 309 308 308 309 308 309 309 309 309 308 309 308 309 310 309 310 308 308 307 306 309 307 307 310 307 313 316 314 315 308 305 308 307 308 307 306 313 321 320 313 310 310 309 308 309 309 308 308 307 307 308 308 308 309
307 307 306 306 305 305 306 307 308 309 309 310 311 311 311 311 311 310 310 311 312 312 312 311 311 312 311 310 311 311 311 310 310 310 309 309 308 308 308 308 308 308 309 308 309 309 309 308 308 309 307 308 308 310 317 314 314 316 312 321 322 312 318 315 305 306 308 308 307 307 314 320 317 311 310 310 309 309 308 309 309 308 308 308 308 308 308 309
306 307 307 306 305 306 307 308 309 309 310 311 311 312 312 312 311 311 310 311 312 313 314 314 312 314 314 312 312 311 311 311 310 310 310 309 309 309 309 309 308 308 308 308 309 310 309 309 310 310 310 312 317 325 329 324 325 324 316 320 322 314 319 318 307 305 307 307 308 308 312 318 314 309 309 310 309 309 308 309 308 308 308 308 308 308 309 309
307 307 307 306 307 308 309 309 309 310 311 311 312 312 312 312 311 311 311 311 313 313 315 315 312 313 314 312 312 312 311 311 311 310 310 310 309 311 311 311 311 309 309 310 311 312 312 314 312 311 312 312 318 330 327 323 326 324 321 321 320 318 316 316 313 307 305 307 310 309 309 314 313 308 309 310 309 308 308 309 309 308 308 308 309 308 308 309
307 307 307 308 309 309 309 309 311 312 312 312 312 312 312 312 312 311 311 312 312 313 315 314 311 315 315 311 312 311 311 312 311 311 311 310 310 311 311 313 313 311 312 313 313 314 314 313 313 318 320 317 321 328 320 322 328 324 325 323 319 322 320 317 317 309 306 308 310 310 310 312 311 306 307 309 309 308 308 309 309 309 308 309 309 309 309 309
307 308 308 309 309 309 310 311 312 312 311 312 312 312 312 312 312 311 312 312 312 317 321 316 313 317 316 311 311 312 312 312 312 313 311 311 311 311 312 314 314 314 314 314 315 314 313 316 320 324 325 318 316 318 315 318 322 321 321 320 319 324 323 318 315 309 305 309 313 313 313 313 312 308 307 308 308 308 308 309 309 308 308 309 309 310 309 309
309 309 309 310 310 310 311 312 312 312 312 312 312 313 312 313 315 313 312 313 313 316 318 315 312 313 312 311 312 313 313 312 312 312 312 312 311 312 314 315 315 316 315 317 320 312 312 324 327 323 321 316 313 312 311 311 313 315 316 319 320 322 325 321 313 307 304 311 319 314 313 313 311 311 308 306 308 307 307 308 308 309 309 309 310 310 310 309
309 309 310 310 311 312 312 311 311 311 312 312 311 312 311 313 317 314 311 312 312 312 312 311 311 311 311 311 313 314 314 313 311 311 312 312 312 314 315 317 321 321 314 313 317 313 317 325 319 317 317 312 311 311 310 310 312 316 317 321 322 320 324 319 310 309 306 310 319 314 313 314 311 312 308 304 307 307 307 308 309 311 310 309 310 310 310 310
309 309 310 310 311 312 312 312 311 311 311 311 311 311 312 314 315 313 313 313 312 312 311 311 311 311 311 312 312 313 313 313 311 311 312 311 314 316 315 320 328 324 315 315 319 321 324 320 313 311 309 306 310 312 311 311 315 319 318 319 321 318 320 317 310 313 309 309 321 318 313 315 314 314 309 304 307 309 309 309 310 311 310 310 310 310 311 310
308 309 310 310 312 311 312 312 311 312 312 311 311 312 313 313 313 313 313 313 312 311 311 311 311 311 312 312 312 313 311 311 311 311 312 312 314 316 315 321 329 327 323 325 327 327 321 315 310 307 305 307 312 313 311 313 316 318 318 318 320 316 316 319 316 314 311 309 317 316 313 318 321 320 315 307 307 310 310 310 309 309 310 310 311 310 311 310
308 308 308 311 312 312 312 312 312 313 312 312 313 313 314 314 315 315 314 313 312 311 311 311 311 311 312 312 313 313 311 310 311 310 312 314 315 316 314 316 326 327 320 319 326 326 316 309 306 306 308 310 312 314 316 318 318 317 318 319 318 314 311 315 315 312 314 311 310 315 320 325 328 329 324 313 308 310 310 310 310 310 311 311 311 311 311 311
308 308 308 310 311 312 313 312 313 312 312 313 313 313 314 314 314 313 315 317 314 313 314 312 313 311 311 313 312 313 312 311 311 311 312 314 314 316 313 312 322 324 314 313 320 319 311 305 305 309 313 313 313 316 316 316 320 320 317 313 310 311 310 312 313 314 324 320 310 313 319 325 331 328 324 321 317 314 309 308 310 310 310 311 311 311 311 311
308 308 308 309 310 312 313 313 313 312 312 312 313 315 314 313 312 309 318 327 319 314 315 313 314 314 311 312 312 313 314 312 311 311 312 313 314 315 315 312 314 318 314 312 314 312 308 304 306 311 315 315 317 316 310 310 322 321 313 308 308 309 310 313 314 315 324 321 311 312 313 320 334 325 321 325 323 322 319 312 310 310 310 310 310 311 311 310
308 308 308 309 309 310 311 312 312 311 312 311 311 314 310 309 310 307 318 327 317 313 316 315 314 314 312 312 313 314 315 314 312 312 312 313 314 314 318 317 313 312 309 310 313 311 310 309 309 313 315 317 318 316 310 309 317 317 310 308 309 310 310 312 313 314 318 315 316 321 315 314 331 329 324 323 319 323 329 321 314 311 311 311 310 310 310 310
309 308 308 309 308 309 310 309 310 310 310 310 309 309 308 308 307 309 318 318 309 312 316 313 312 312 313 313 312 312 313 313 313 313 312 313 314 313 317 317 314 313 306 311 319 311 308 313 312 313 316 316 314 312 309 308 313 313 307 306 308 308 310 310 312 317 316 314 320 331 318 312 334 339 326 319 317 319 320 319 315 311 312 312 311 311 311 311
309 309 308 309 309 310 309 309 309 308 309 310 307 307 307 306 306 315 324 315 308 313 315 313 313 312 313 315 314 312 311 312 312 313 312 313 314 313 315 312 310 312 306 311 323 311 305 309 308 309 312 312 311 307 306 309 312 309 304 306 309 309 310 310 311 316 318 319 319 324 314 312 335 344 326 315 317 319 316 317 315 311 312 313 312 312 311 311
310 310 308 309 310 309 309 309 309 308 309 308 307 308 306 307 317 323 321 313 309 311 312 315 315 312 315 317 314 311 312 312 311 313 312 312 313 311 313 310 309 315 314 313 317 310 305 307 306 307 308 307 306 304 303 305 306 305 307 311 313 313 312 310 312 315 319 325 321 317 313 312 324 336 330 318 319 322 319 317 315 311 312 312 312 312 311 311
310 310 309 310 310 309 310 309 308 309 308 307 307 307 305 314 331 330 312 309 312 311 312 316 315 316 320 319 314 314 316 313 309 313 315 314 316 314 315 315 314 321 326 322 316 311 310 311 308 305 304 304 306 306 304 302 303 306 312 315 315 320 317 316 322 320 319 325 320 314 313 312 317 326 326 322 321 322 320 317 316 313 312 312 312 312 311 311
308 308 309 309 308 309 309 308 310 309 307 309 306 307 314 318 323 322 311 308 312 314 315 315 313 316 319 316 315 317 317 312 309 313 316 317 320 316 313 318 318 318 323 322 317 316 316 314 309 306 304 303 308 312 309 307 307 309 315 320 321 329 327 324 331 325 321 324 316 311 312 312 320 324 320 321 321 317 314 314 315 312 311 312 311 311 311 311
307 307 308 308 308 308 308 308 310 308 308 309 304 311 328 327 315 313 314 312 311 311 313 314 313 314 316 315 315 315 313 311 312 313 311 314 321 315 308 310 311 314 318 317 318 321 317 313 311 312 309 304 306 313 316 314 313 312 316 322 325 328 324 325 330 321 317 321 314 309 312 318 325 322 318 321 318 312 310 311 312 312 311 311 311 311 310 311
307 308 307 308 308 307 309 309 308 309 308 307 310 315 322 322 314 311 315 314 310 309 312 315 316 314 314 317 316 313 314 312 312 315 314 315 323 322 316 311 307 313 321 317 316 320 317 314 314 314 311 306 305 309 310 310 313 314 312 315 322 324 319 321 326 321 317 322 320 311 314 326 325 315 315 314 310 309 310 311 311 311 311 310 310 311 310 312
307 308 306 308 308 307 309 308 307 309 306 309 322 324 318 319 317 315 319 315 311 313 313 312 317 317 316 318 315 310 314 314 311 315 318 316 319 322 320 315 308 312 320 318 314 316 317 315 311 307 305 305 308 306 303 308 315 313 309 314 319 319 321 320 315 316 317 320 325 318 318 329 322 313 315 310 307 309 309 310 311 310 311 311 311 311 311 312
307 307 307 308 307 308 309 307 308 307 307 318 330 326 324 325 316 315 318 312 311 316 313 312 317 319 319 319 317 312 310 312 311 313 316 315 315 315 315 314 308 308 314 316 316 314 314 316 310 307 305 303 305 304 301 307 313 311 311 314 311 309 318 320 312 312 314 317 326 321 320 329 321 315 320 314 311 312 309 309 310 310 312 311 311 312 312 312
307 307 308 307 307 309 308 307 308 305 308 322 327 321 322 318 310 313 314 308 309 314 315 318 315 314 320 320 320 319 313 310 312 314 315 314 312 313 314 312 306 306 308 310 314 312 311 315 311 308 310 305 301 303 302 303 307 313 314 311 308 308 312 317 318 323 321 321 329 323 319 328 325 321 322 316 313 314 312 310 309 310 313 312 312 313 311 311
307 307 307 307 307 308 307 306 307 307 311 319 320 317 315 310 305 307 309 307 310 314 317 322 315 311 320 321 318 319 314 313 317 317 316 315 311 311 314 312 306 304 302 303 311 310 309 315 314 308 311 308 302 304 308 305 302 308 310 306 309 314 316 317 320 325 322 319 326 328 322 322 324 328 324 315 315 317 314 312 311 312 312 312 312 311 310 310
306 307 307 307 307 307 308 307 305 308 314 317 322 319 311 309 306 303 306 307 310 315 317 320 314 310 316 319 319 318 313 314 317 316 315 314 312 309 309 310 306 303 301 302 309 310 308 313 315 310 307 307 306 308 314 315 305 303 307 306 308 315 318 318 316 318 322 320 322 329 329 324 328 335 328 317 318 317 314 316 316 312 311 311 311 311 310 310
306 308 308 307 308 307 307 307 308 315 318 314 319 319 308 307 307 302 305 307 307 312 317 319 316 313 315 315 316 316 314 315 317 316 314 313 312 310 307 306 307 304 301 301 306 309 309 310 315 315 307 308 311 310 315 321 312 309 314 313 312 312 311 313 312 313 321 325 323 323 328 336 336 330 324 321 321 316 314 317 314 310 311 311 310 310 310 310
306 309 309 306 308 307 306 309 310 316 321 313 311 312 307 306 306 303 303 305 305 308 312 317 317 316 318 316 313 313 314 317 317 316 316 313 312 312 306 302 304 303 303 306 307 309 311 312 316 320 314 315 317 307 305 310 308 310 315 315 317 316 314 319 317 312 314 319 323 320 321 334 332 321 319 319 315 310 309 311 310 309 311 311 310 311 310 309
306 309 308 306 308 307 309 312 307 307 319 315 308 308 306 304 305 304 303 303 306 305 306 311 315 316 318 316 314 314 314 317 317 315 315 314 313 314 306 300 300 301 304 310 309 304 308 315 317 319 317 314 309 301 298 300 300 303 306 308 313 314 318 326 321 317 314 310 314 316 316 326 326 315 314 312 306 305 307 309 310 310 311 310 310 311 310 310
307 309 307 306 308 307 310 312 309 312 315 308 301 303 304 303 303 304 304 303 306 306 308 312 311 312 313 310 312 314 313 315 318 315 315 316 312 308 302 299 300 302 304 309 309 303 306 313 315 321 324 315 307 301 298 296 298 305 306 305 308 310 316 325 321 318 317 313 315 316 316 329 325 307 304 307 305 306 308 310 311 310 311 310 310 311 310 310
306 307 307 306 307 307 309 312 317 323 314 302 301 303 302 301 301 304 306 306 306 307 313 315 309 308 308 305 309 312 309 312 315 312 313 316 309 301 299 300 301 302 304 307 309 305 307 314 316 320 328 325 318 313 308 304 303 310 312 307 308 309 312 317 315 313 316 318 320 320 322 332 325 310 307 308 307 308 308 310 310 310 311 310 310 311 310 309
306 307 306 306 307 306 309 313 319 327 318 307 307 307 305 304 302 302 305 305 304 305 311 313 307 306 306 303 307 308 305 308 311 310 310 312 308 300 299 300 300 301 302 302 303 304 308 313 315 319 321 318 320 321 317 315 312 312 312 309 308 309 311 314 314 314 318 318 316 319 326 329 321 316 315 311 310 311 310 309 310 310 310 310 310 310 310 309
306 308 308 307 307 306 308 308 310 318 319 313 310 308 308 309 304 301 303 304 304 302 305 307 304 306 307 306 310 313 307 304 306 308 312 314 310 302 299 300 301 300 301 300 300 304 310 311 313 321 323 318 324 326 315 312 314 314 313 312 311 310 310 315 318 317 319 318 314 316 321 321 317 315 314 313 317 318 313 309 309 309 309 309 309 309 309 309
307 309 308 307 306 306 308 306 304 308 310 310 309 307 309 311 306 303 303 303 303 302 302 304 304 308 311 310 314 316 310 306 306 307 311 313 308 301 298 300 300 299 300 300 299 305 312 313 311 316 318 316 322 323 313 309 313 315 314 314 315 312 310 313 315 316 317 316 316 317 316 316 314 313 313 316 318 317 311 307 308 309 308 309 309 309 308 308
307 306 304 305 308 308 308 308 306 305 306 307 308 307 310 313 311 310 307 301 301 302 303 307 308 310 315 314 314 314 310 309 311 309 310 310 306 303 302 300 299 299 301 300 298 304 313 314 310 310 314 316 315 315 313 311 312 313 313 313 313 313 311 311 311 313 314 314 313 316 317 316 313 311 312 312 312 310 308 307 308 308 308 309 309 309 309 308
305 305 303 304 307 307 307 306 305 306 307 308 309 309 313 317 315 311 306 302 304 303 302 310 313 311 314 313 313 316 315 312 313 312 310 310 307 307 309 307 302 298 299 300 299 300 308 315 312 307 310 315 313 311 309 309 310 311 310 310 310 311 311 311 310 310 312 313 313 313 314 313 310 309 309 308 307 307 307 308 308 308 309 310 309 309 309 308
304 305 304 304 305 303 304 305 306 308 308 305 307 309 311 317 317 309 304 305 310 307 302 310 316 311 310 311 312 319 318 313 312 311 311 312 310 308 312 314 309 300 298 302 301 299 303 314 312 306 310 316 313 308 307 307 308 309 310 309 308 309 309 307 307 308 309 310 310 309 310 310 308 307 307 307 307 307 307 308 309 309 309 310 310 309 309 308
304 304 303 305 307 304 303 304 304 310 312 308 307 308 310 315 315 309 306 304 307 309 306 310 315 310 307 309 312 316 312 308 309 308 307 310 310 308 308 308 308 306 303 302 302 302 303 308 308 305 311 317 310 305 308 309 307 309 311 310 307 307 309 308 306 307 308 309 309 308 309 310 308 306 306 306 306 306 307 309 309 309 308 308 309 309 308 307
303 304 303 305 308 304 303 303 301 305 312 309 306 307 308 309 305 305 308 306 303 306 307 304 306 310 312 312 312 312 308 306 307 306 305 306 305 305 305 303 304 307 306 303 303 304 305 309 310 307 312 316 308 305 310 311 310 313 314 312 310 308 307 307 307 307 307 307 308 309 309 310 308 307 307 308 307 306 307 308 307 307 306 307 307 308 307 306
Wind_Speed
7 8 8 7 3 2 1 2 1 6 5 2 2 3 4 5 5 6 4 2 3 3 3 1 2 3 3 4 4 5 6 7 11 8 6 8 8 7 6 6 7 7 7 7 8 8 8 9 8 8 6 5 5 4 4 2 2 2 3 3 1 4 3 4 5 5 4 3 8 12 15 9 3 8 8 5 9 12 13 16 16 15 15 14 12 10 11 11
7 7 6 6 4 3 1 1 0 2 3 2 3 2 2 5 6 7 7 3 5 5 5 3 1 2 2 3 3 4 5 5 8 9 10 9 6 6 5 6 6 7 7 8 9 8 10 10 8 7 5 5 4 4 5 2 4 3 3 3 3 5 3 2 3 5 3 4 11 13 14 10 4 7 7 4 7 8 11 15 17 18 16 13 13 13 14 13
7 6 4 3 3 4 5 3 2 2 4 4 4 2 2 4 5 7 7 3 5 6 5 5 5 5 4 3 4 5 6 4 6 9 11 8 4 4 5 6 6 6 7 7 7 7 8 8 6 4 3 4 4 4 4 3 3 2 4 2 5 6 3 0 1 3 6 8 13 11 10 10 6 7 7 5 6 6 10 14 14 17 16 11 12 15 16 16
5 3 1 3 3 4 8 8 4 2 4 5 4 3 3 5 5 7 7 3 5 6 5 5 8 9 7 6 6 6 4 3 6 11 10 6 3 2 3 4 5 6 6 6 7 7 7 6 5 4 4 4 4 4 3 5 2 2 4 3 6 5 4 1 2 2 6 11 14 10 7 6 6 7 8 5 3 7 14 18 15 14 13 10 11 13 16 17
6 3 2 3 4 3 7 10 6 3 5 6 5 3 5 6 6 7 6 3 5 6 4 6 7 6 4 5 5 4 2 2 5 9 8 4 2 2 2 3 3 3 4 6 8 8 8 6 5 5 4 2 3 3 3 4 5 4 1 2 4 6 3 3 4 5 9 12 11 9 6 5 5 7 11 9 5 7 9 11 12 10 8 8 9 9 12 15
7 5 4 1 3 6 11 11 5 6 7 6 5 5 6 6 6 7 5 3 5 5 2 4 4 6 5 3 1 2 1 1 3 7 6 2 3 2 3 3 3 3 3 7 10 9 8 5 6 6 4 3 3 3 2 2 3 3 1 1 4 6 3 6 5 5 9 10 9 8 6 5 4 7 11 14 18 17 9 6 6 6 5 8 9 9 10 11
7 6 7 5 3 8 15 9 5 7 7 6 5 5 6 6 6 7 4 4 5 3 1 2 5 8 8 7 6 4 6 6 4 6 5 3 3 2 3 3 4 5 5 8 9 8 6 4 6 8 6 4 2 3 4 3 3 4 1 0 3 4 5 8 6 5 6 7 7 5 4 5 5 5 7 16 25 23 15 10 9 8 8 11 11 11 10 10
7 8 9 8 6 10 11 7 7 6 5 4 4 4 4 5 5 4 2 4 4 2 3 4 3 5 6 6 5 6 9 8 5 6 6 4 4 3 3 3 4 5 7 8 7 6 4 3 7 9 5 3 3 3 4 3 4 5 3 3 4 3 6 8 5 4 3 3 4 4 6 7 7 6 10 21 25 19 15 13 13 13 13 14 12 11 11 10
9 9 9 10 10 10 10 9 6 5 4 3 3 2 2 3 2 1 2 2 3 3 6 6 1 1 3 5 3 4 6 6 6 7 7 6 5 4 4 3 4 5 7 9 7 5 3 4 8 6 3 5 6 4 2 1 2 3 6 7 6 5 6 6 3 3 2 3 3 4 6 7 6 6 12 18 14 10 12 13 14 14 15 15 12 11 11 10
10 9 8 9 10 9 8 6 5 5 4 3 2 2 1 2 2 1 1 2 3 6 9 6 4 4 3 3 1 2 3 5 6 6 7 8 6 4 4 3 4 6 7 8 6 4 4 6 6 5 5 7 6 3 3 2 4 9 12 10 7 6 4 3 2 1 2 5 5 4 6 7 4 3 7 8 6 4 7 11 14 14 14 13 11 11 10 10
9 8 7 7 7 7 6 5 5 4 3 3 3 2 0 1 1 2 3 3 5 8 9 7 6 4 3 2 3 4 3 5 6 6 7 7 6 4 3 4 5 7 7 7 5 4 4 5 6 6 4 5 6 6 6 8 12 16 15 8 5 2 2 3 3 3 3 3 5 5 6 7 2 2 9 11 6 5 3 5 10 12 12 10 10 10 9 9
8 8 7 6 6 5 4 4 4 3 2 3 3 1 1 1 0 1 2 5 5 5 5 3 2 2 3 4 7 7 5 6 6 7 7 7 6 5 5 6 6 8 8 6 4 4 6 5 4 4 3 8 6 5 8 11 13 12 8 5 3 5 1 3 3 3 2 2 3 3 5 5 3 7 11 9 7 7 5 6 7 9 10 9 9 8 6 7
8 8 8 6 5 4 3 4 4 2 2 3 2 2 4 3 3 7 9 9 7 6 6 5 4 4 4 6 8 7 6 6 7 8 8 7 8 8 7 7 7 9 8 6 4 4 7 3 1 4 9 9 5 6 9 8 8 4 1 4 1 6 3 2 1 2 2 2 2 2 3 5 6 12 10 5 5 6 7 8 8 9 9 9 9 8 6 5
8 9 8 6 5 4 4 4 4 3 4 4 4 5 6 4 6 10 10 8 5 4 4 2 3 3 3 5 7 7 6 6 6 6 6 8 9 9 9 8 8 9 8 7 6 6 6 3 4 9 11 10 10 12 8 3 3 1 1 2 2 2 3 3 1 0 1 1 2 2 2 6 7 9 6 5 6 6 9 9 9 10 10 10 9 8 8 6
8 9 8 7 6 5 4 4 5 4 4 4 4 5 5 5 7 7 4 5 5 4 3 2 3 3 5 6 5 6 6 6 6 5 6 8 9 10 9 9 10 10 11 11 10 10 9 8 9 10 11 12 12 9 4 4 2 2 1 2 4 1 4 6 1 1 1 2 2 2 2 6 8 9 4 6 7 7 10 11 10 11 10 9 9 9 10 8
7 9 8 8 7 6 6 6 5 5 4 4 4 4 4 4 4 6 4 2 3 3 2 2 3 3 3 4 4 5 5 5 6 8 8 8 9 10 9 9 9 10 11 12 12 11 9 8 11 11 9 7 5 4 4 4 4 4 2 1 3 0 3 5 2 1 2 1 3 2 3 4 4 5 2 4 7 8 12 14 13 12 10 9 9 9 9 8
7 8 8 7 7 7 7 6 5 4 4 4 5 4 3 3 3 4 5 4 3 3 4 4 4 4 4 3 3 5 5 5 6 7 7 8 8 8 8 7 8 9 10 10 9 8 6 6 8 6 6 5 3 4 4 3 3 3 3 0 3 2 2 3 2 1 2 1 3 2 4 7 7 7 8 7 8 10 14 18 16 14 12 9 9 10 9 8
8 8 8 7 7 7 7 6 5 4 5 6 6 5 5 4 4 5 6 5 2 2 4 3 2 3 4 4 4 5 5 5 4 5 5 6 6 5 4 5 6 7 8 7 5 5 5 5 5 2 5 6 4 5 3 3 4 2 0 1 2 3 2 3 2 1 3 2 4 2 5 11 11 12 17 16 11 14 19 20 19 17 14 10 9 9 9 9
8 7 7 7 7 8 7 7 6 6 7 8 7 6 6 5 5 4 4 4 1 1 2 1 2 3 2 4 5 5 6 5 3 4 3 3 4 3 4 5 4 5 4 3 3 6 5 4 5 4 3 3 3 3 4 4 4 5 4 3 2 2 4 5 4 2 2 3 5 5 6 10 11 11 14 16 12 14 19 20 20 19 17 12 9 8 8 8
8 7 7 7 7 8 8 8 8 8 8 8 7 5 3 2 3 3 4 4 6 7 4 4 7 6 4 5 5 5 5 6 4 3 3 2 3 3 3 4 5 5 4 1 3 5 5 4 4 2 3 3 4 3 3 1 4 5 4 2 3 3 5 5 3 3 2 2 5 4 4 9 12 11 13 14 9 10 16 18 19 20 17 14 10 9 8 8
8 7 7 7 7 8 9 10 9 8 8 6 4 3 3 3 1 3 8 11 11 10 8 8 9 7 6 6 5 5 4 5 5 3 3 3 2 1 1 2 4 5 5 2 1 3 5 5 1 5 6 5 4 2 1 1 3 3 4 2 3 3 5 4 1 4 6 4 4 3 6 11 10 9 12 10 4 7 12 15 16 16 14 14 13 11 9 9
8 7 7 6 5 7 9 10 8 5 4 2 3 3 3 2 4 7 9 9 9 9 9 9 9 8 8 7 7 5 4 5 7 5 3 2 2 1 1 4 5 2 5 3 2 4 6 3 3 4 3 1 2 3 1 2 3 3 3 2 2 3 4 5 2 5 6 3 4 5 7 11 10 8 10 5 3 3 6 10 11 11 10 11 11 10 8 8
8 8 7 5 3 5 8 9 8 5 4 4 5 4 3 6 9 10 9 8 7 7 8 7 8 7 7 8 8 6 5 5 6 7 4 2 3 5 5 6 5 2 5 4 3 3 3 1 4 1 2 2 3 4 4 3 3 3 2 2 3 3 3 3 3 6 5 1 4 5 5 8 7 6 6 4 1 2 3 4 7 8 8 7 7 7 7 8
8 7 6 5 3 5 8 8 7 5 3 3 4 7 9 9 9 8 7 6 4 5 6 7 8 8 6 6 7 8 9 8 7 7 6 3 4 6 5 4 5 4 5 3 6 7 3 2 1 3 5 3 1 4 5 4 1 2 2 4 2 2 1 4 4 7 6 1 1 4 5 5 5 5 6 4 3 2 2 2 5 7 7 6 6 6 7 7
7 7 6 6 5 3 7 6 4 3 1 3 8 11 12 8 5 3 3 4 2 2 4 5 5 6 5 5 5 5 7 8 10 9 6 6 5 4 4 4 4 2 2 2 8 7 3 2 1 3 5 4 2 2 2 4 1 3 2 4 2 2 2 4 5 6 4 3 2 4 4 3 5 5 5 5 5 5 4 4 6 7 7 8 8 6 6 6
6 6 5 5 6 5 5 5 5 5 4 5 8 10 9 4 1 1 1 4 2 3 3 3 3 4 3 4 4 2 3 4 9 10 6 5 3 4 4 4 4 3 4 2 6 3 1 3 3 3 4 5 4 1 2 4 3 1 2 4 4 3 2 3 5 4 2 1 3 3 4 2 5 5 6 5 6 7 6 5 6 6 7 9 9 7 6 5
5 5 4 3 4 4 3 4 5 5 4 4 6 7 5 3 2 2 1 4 2 2 2 2 2 3 3 5 4 2 1 1 4 9 8 5 2 4 4 1 3 3 3 3 2 1 1 3 5 5 5 4 3 1 2 4 3 2 2 4 4 4 2 1 3 3 1 3 4 5 4 2 3 5 6 5 4 7 7 6 7 4 4 5 4 4 4 3
5 5 3 1 2 2 1 1 2 3 2 2 3 5 5 3 3 2 3 4 1 1 1 1 1 3 3 5 6 4 2 1 2 4 8 7 4 3 4 2 5 4 2 2 1 1 1 2 2 3 4 2 1 2 3 4 1 3 2 3 2 3 3 3 4 2 2 1 3 6 4 1 4 6 6 4 2 4 6 4 5 4 1 0 1 1 2 2
6 5 4 2 2 2 2 2 3 3 3 3 2 4 4 3 4 1 4 2 1 1 1 1 1 2 4 3 6 6 4 3 3 2 5 7 5 5 6 5 9 7 5 5 4 2 1 1 1 3 2 1 3 3 2 3 0 2 2 3 3 3 3 3 4 2 3 3 2 6 4 2 4 5 4 3 2 2 3 2 4 3 4 4 4 4 3 3
6 6 5 5 4 4 4 4 5 4 4 4 3 3 3 3 1 4 3 1 0 1 1 1 1 3 5 3 4 7 4 3 4 3 4 6 7 8 10 8 8 7 5 7 5 1 1 1 1 2 1 2 2 1 0 1 1 0 3 4 4 4 4 3 3 2 3 2 3 5 3 1 2 5 3 2 2 5 5 2 4 0 4 6 6 6 5 4
5 6 7 6 6 6 6 5 5 3 3 3 4 4 4 2 3 5 1 2 1 1 2 2 2 3 5 3 2 5 4 4 6 5 3 4 5 6 8 4 2 5 4 5 4 3 3 2 0 0 1 1 2 1 2 2 1 2 3 3 2 3 3 3 4 4 3 2 4 4 4 1 1 4 5 4 4 5 6 5 5 5 5 7 7 6 5 4
3 5 5 6 7 7 6 5 4 3 3 3 5 5 4 1 2 1 1 1 1 2 0 1 2 3 4 3 2 4 3 3 6 5 2 2 4 3 2 2 2 3 3 1 1 3 3 1 1 1 1 1 2 0 2 3 4 4 3 3 2 2 3 1 3 2 1 3 2 2 3 1 4 6 6 6 6 6 8 8 9 9 8 8 7 6 5 5
2 3 3 5 6 6 6 4 3 3 4 5 6 4 4 4 1 2 1 1 0 1 1 1 2 2 2 2 2 3 1 1 4 4 1 1 4 3 2 1 2 2 0 2 1 2 2 2 2 1 1 1 3 1 1 2 2 2 2 2 2 2 3 1 4 2 2 3 1 2 3 1 3 4 5 7 6 6 8 8 9 9 9 8 7 6 6 5
1 1 2 3 3 3 3 3 4 5 6 7 5 2 3 1 3 2 1 3 1 1 2 2 2 3 3 2 1 2 0 0 2 3 2 2 3 1 2 2 1 3 3 2 1 2 1 2 1 1 1 1 2 2 1 1 0 1 3 3 2 3 3 2 3 2 2 3 3 4 2 3 1 1 4 7 5 3 5 7 8 8 8 7 6 6 6 4
2 1 1 1 1 0 1 3 5 6 8 7 3 4 2 3 3 2 3 4 2 1 1 1 3 4 4 3 2 1 1 1 1 3 3 2 1 2 1 2 2 2 3 2 1 2 1 3 2 1 1 2 1 2 1 2 0 2 2 3 2 2 4 2 2 4 2 2 3 2 3 4 1 2 5 4 1 2 4 6 7 7 7 7 6 6 5 2
2 2 1 1 2 1 2 3 5 7 8 5 4 3 3 3 1 3 2 1 3 3 2 2 3 4 2 4 3 2 1 0 1 2 1 1 2 2 1 2 2 1 3 3 1 1 1 2 2 3 1 2 1 1 0 1 1 1 1 0 1 3 5 4 1 1 3 1 3 1 2 5 3 2 5 5 1 2 2 3 5 6 7 6 6 6 4 2
2 1 1 2 2 1 2 3 5 7 6 4 4 1 4 2 1 2 1 1 2 3 5 2 0 1 2 2 2 3 1 1 2 1 1 1 1 3 2 1 1 1 1 2 2 2 2 2 2 1 0 1 0 1 1 1 1 1 1 2 2 2 3 4 1 3 4 1 4 2 2 5 2 1 4 2 2 5 5 3 3 6 6 6 6 6 4 3
1 1 0 2 1 1 3 4 5 7 4 4 1 2 2 1 1 1 0 1 2 3 5 3 1 1 2 2 2 2 0 1 2 1 1 1 1 3 2 0 1 1 1 1 1 1 1 1 4 1 2 2 1 1 2 1 1 1 2 1 1 2 1 2 2 1 2 1 4 4 4 3 3 3 3 4 7 8 6 4 3 6 7 8 8 7 5 4
2 2 1 1 1 2 4 4 6 6 4 3 2 2 1 1 1 1 2 1 1 3 2 3 1 2 2 4 2 1 1 2 1 1 1 1 0 1 2 1 1 1 1 1 1 1 1 1 3 2 1 1 2 1 1 1 0 1 1 2 1 2 3 1 1 2 1 1 2 4 4 3 5 5 6 8 9 8 7 5 5 9 9 9 8 7 6 6
2 2 1 1 2 3 5 6 6 5 4 1 4 2 0 1 1 2 3 1 1 2 2 3 2 2 3 2 2 1 1 2 3 2 1 1 1 1 0 1 1 2 0 1 1 0 2 1 3 3 2 1 1 1 3 4 2 1 1 1 1 0 2 1 1 1 3 2 2 1 3 5 6 4 6 7 7 8 9 7 8 11 10 8 7 7 7 8
2 1 1 1 3 4 6 6 3 3 4 1 2 1 0 1 2 2 3 2 1 1 1 3 4 3 3 2 2 3 2 1 2 2 1 2 1 1 1 1 1 1 1 1 0 0 1 2 2 2 2 2 3 3 3 4 3 3 3 2 3 2 2 2 2 2 2 2 3 3 2 7 6 3 5 6 5 8 12 12 12 13 11 8 7 6 6 7
3 1 1 1 4 6 6 4 3 3 3 2 1 1 1 1 2 2 3 2 1 1 1 2 2 2 3 2 1 3 3 2 2 2 2 3 2 2 2 2 1 1 2 1 1 2 2 3 1 3 3 3 3 2 3 3 2 3 2 2 2 3 4 5 2 3 1 1 1 3 1 7 6 3 5 5 3 9 16 16 15 13 10 7 6 4 4 6
3 2 1 2 4 6 4 2 3 3 2 1 1 1 1 1 1 2 2 2 1 1 1 1 1 1 2 2 2 3 3 3 4 3 2 3 2 2 3 3 1 2 3 1 1 1 1 2 1 3 4 3 4 2 2 1 1 1 2 2 2 2 2 5 4 3 2 2 2 2 2 7 6 5 4 4 1 8 13 11 10 10 7 5 3 3 5 6
3 3 2 1 3 5 3 1 1 0 1 1 2 1 0 1 2 2 2 2 2 2 2 1 1 1 1 1 3 3 2 2 3 2 2 3 2 1 3 2 2 3 2 1 1 2 1 0 2 2 5 6 6 5 3 2 0 2 3 2 3 2 5 3 1 3 0 4 6 5 4 7 5 6 5 2 3 4 5 5 5 6 4 2 2 5 8 7
3 2 1 1 1 4 3 2 4 3 2 1 1 1 1 1 2 2 2 2 2 2 2 1 1 3 2 2 3 1 0 1 1 0 1 1 1 1 2 2 2 2 2 2 2 2 2 1 3 3 1 2 2 3 3 2 2 2 2 2 3 4 6 3 2 3 2 4 5 6 6 6 6 6 4 1 1 2 1 3 3 4 5 6 6 8 9 8
3 1 1 1 0 2 2 2 3 4 4 3 1 2 2 1 2 2 1 1 1 2 2 1 2 3 2 1 2 1 1 2 1 1 1 2 2 1 1 1 1 1 2 1 1 2 2 1 2 5 6 6 6 6 4 3 2 2 3 3 4 5 5 5 4 3 5 3 3 7 6 5 11 7 4 4 5 5 5 6 9 11 11 8 6 9 9 8
3 2 1 1 0 1 3 2 2 3 4 5 3 2 3 2 1 1 2 2 1 3 2 1 1 3 3 4 3 1 2 2 2 0 2 2 2 1 1 2 1 2 2 2 1 2 4 1 4 5 7 7 7 6 3 2 3 5 5 5 6 6 5 6 6 6 5 5 5 8 6 5 14 9 6 6 6 4 8 13 17 16 11 6 6 10 10 9
2 2 2 3 2 1 2 1 1 4 4 3 2 2 3 3 1 2 3 1 1 3 2 1 3 5 6 6 4 3 2 1 1 3 2 2 1 1 1 2 2 3 2 2 2 3 4 3 4 4 5 7 5 5 3 3 4 5 6 8 8 7 9 11 12 8 8 7 9 6 7 9 14 11 5 7 6 8 15 18 18 15 9 5 7 12 12 9
3 3 4 4 2 3 4 1 3 5 4 3 2 2 4 5 5 4 2 2 1 3 3 3 6 6 6 5 4 4 4 2 2 4 3 3 2 2 1 2 3 3 1 1 2 2 3 3 3 3 4 7 6 5 4 5 4 5 9 11 8 10 13 14 12 9 9 11 14 7 4 10 14 12 11 13 13 15 19 18 14 10 5 3 7 12 12 9
3 4 5 5 3 4 5 3 4 5 2 2 1 2 4 6 6 4 3 5 2 2 4 5 6 5 5 5 5 4 6 6 2 3 5 5 2 3 3 3 3 2 0 1 1 1 2 3 1 4 2 8 5 2 1 4 5 6 11 11 8 10 12 11 10 7 7 12 15 9 8 14 13 8 11 16 15 11 13 13 9 5 2 2 6 11 11 9
3 3 4 5 3 2 3 2 3 4 1 1 3 3 3 5 7 5 3 4 5 4 6 8 5 2 3 3 5 6 7 5 2 1 4 5 2 3 4 3 6 5 2 2 1 1 2 1 1 5 1 6 4 4 3 1 1 6 13 15 13 11 9 8 8 8 10 12 9 3 6 12 9 4 6 11 9 7 9 10 7 4 4 3 3 7 9 9
4 4 4 4 2 1 3 2 3 3 2 3 4 4 3 4 7 8 3 3 4 5 6 8 7 4 4 3 7 8 5 3 1 2 1 1 1 1 2 3 7 7 5 4 2 1 3 3 1 3 2 6 5 3 3 5 5 7 11 12 14 13 10 8 6 8 13 12 7 6 9 9 3 3 4 6 7 8 8 7 7 10 8 4 2 6 9 12
Wind_Direction
121 117 128 134 108 58 51 225 125 47 34 17 346 342 11 28 18 359 340 265 210 228 252 223 97 75 41 1 347 338 343 13 15 26 84 68 71 97 108 127 140 149 155 155 145 134 133 134 132 129 134 142 139 144 142 112 68 70 96 93 149 178 187 186 182 184 159 183 193 191 192 186 205 210 213 235 241 246 250 251 249 252 251 252 268 276 278 281
128 118 118 126 120 132 156 235 198 15 350 310 305 312 351 7 7 355 335 272 209 219 236 245 282 309 311 310 311 311 327 1 7 28 48 45 72 100 110 129 143 157 164 161 146 131 127 123 114 111 106 108 109 138 146 85 62 81 100 100 210 201 188 190 188 190 171 183 183 185 194 197 219 208 200 226 247 247 253 255 249 251 251 245 252 258 265 269
130 112 105 93 97 157 177 166 155 279 273 280 294 280 304 330 345 352 338 272 203 205 222 257 291 296 285 270 276 290 305 333 1 18 27 25 59 100 115 132 138 155 170 167 152 138 134 129 119 123 128 110 92 126 123 52 56 67 93 120 236 203 162 91 118 196 212 190 170 175 195 206 223 202 194 222 262 266 246 246 240 244 250 245 242 247 258 264
160 138 120 18 26 169 177 178 185 257 264 269 281 266 287 301 311 339 333 259 191 197 221 275 304 302 283 260 265 272 287 322 356 5 12 18 49 96 113 137 142 153 164 165 161 147 143 141 133 143 149 120 81 107 68 27 58 68 102 174 228 174 129 138 95 116 191 175 168 174 179 202 215 203 212 213 282 276 249 248 242 244 258 253 240 242 251 259
208 235 268 352 339 241 195 185 198 278 282 273 278 271 291 291 293 322 320 242 190 202 246 317 324 319 286 255 250 248 286 340 340 355 7 24 80 111 140 167 163 149 150 165 168 157 156 155 143 147 137 100 55 79 33 37 87 78 71 243 189 158 124 144 117 110 161 166 169 172 170 208 214 216 228 213 220 249 257 265 248 245 261 255 251 251 251 256
218 245 243 202 298 237 190 179 208 292 292 287 288 281 292 288 291 310 296 221 193 200 302 358 42 68 75 71 71 225 202 94 346 1 14 47 108 118 138 165 172 160 162 167 169 168 170 165 148 147 115 57 40 74 63 46 93 96 304 325 154 176 162 148 133 123 161 171 169 172 195 226 230 250 248 232 237 246 263 291 249 237 267 269 272 275 269 264
211 229 214 186 225 185 169 176 263 290 290 290 289 284 287 283 290 298 269 213 198 185 102 107 90 74 70 66 68 87 98 92 38 21 30 71 104 109 112 131 151 164 170 162 170 176 176 174 145 134 101 69 87 90 81 76 86 109 168 40 132 184 169 155 149 135 159 178 176 182 220 239 237 262 277 253 251 256 262 263 248 252 279 281 276 280 286 284
214 223 208 196 213 188 185 236 274 276 280 279 279 279 273 273 283 280 229 199 200 181 174 170 95 65 61 55 65 74 69 65 50 43 44 69 102 110 100 113 130 151 164 161 170 171 166 173 147 131 94 87 129 120 99 81 59 82 150 165 121 140 154 151 156 158 176 194 193 219 243 254 254 270 285 271 270 270 261 253 247 254 270 273 273 280 290 292
220 220 210 208 221 222 234 256 262 263 265 266 274 264 248 251 251 218 170 191 215 206 194 192 175 20 33 28 43 60 47 50 57 47 49 74 95 95 81 97 118 138 163 168 171 164 146 153 158 159 140 134 126 116 98 57 18 100 137 147 128 125 141 147 165 181 227 246 241 256 264 265 271 294 280 275 292 283 250 241 242 250 260 263 267 277 288 289
221 217 211 213 223 230 239 245 252 255 248 266 262 200 187 203 187 177 306 281 240 206 200 211 249 274 322 333 24 80 45 53 57 46 54 68 77 81 72 89 127 141 160 170 169 151 144 155 164 162 142 138 121 66 19 77 123 124 125 125 120 126 139 152 197 236 260 267 258 247 272 272 273 324 266 269 354 338 245 233 235 240 248 254 264 276 286 287
220 218 212 210 213 218 228 236 243 244 249 259 218 193 214 176 196 301 306 265 219 207 212 229 248 273 305 270 140 116 81 62 64 62 61 63 75 89 80 80 117 143 151 153 150 137 145 151 147 146 137 144 125 59 68 109 119 122 119 104 88 102 183 206 223 248 251 269 262 245 272 283 276 232 249 260 293 300 266 229 229 234 243 252 264 275 283 290
219 216 214 211 211 215 221 226 234 251 254 217 198 223 147 139 290 310 138 140 154 174 182 176 153 107 96 112 113 105 80 69 71 70 64 63 75 77 76 76 95 127 134 134 134 135 142 133 137 163 146 144 136 67 98 117 121 125 115 95 18 4 359 233 234 237 242 276 287 294 301 292 216 223 251 273 266 242 232 235 233 236 246 253 260 268 277 293
223 220 217 218 222 223 224 235 249 247 208 179 160 134 138 130 113 121 114 108 112 120 124 111 105 119 113 90 90 87 72 73 74 69 64 64 71 68 70 77 90 107 111 112 118 141 149 138 158 150 128 127 120 107 123 123 122 133 53 106 36 0 4 284 250 242 272 283 287 11 322 286 246 240 248 272 256 224 228 241 242 246 252 254 257 261 268 281
221 218 216 219 227 234 241 241 227 201 175 153 126 130 144 147 142 129 102 86 97 116 135 132 114 133 126 94 83 76 70 68 69 69 72 73 75 73 74 79 87 95 97 101 111 127 137 131 131 123 107 104 116 119 109 72 103 95 346 86 36 1 294 302 347 292 341 306 314 71 261 267 266 267 253 231 233 224 237 248 248 253 257 259 260 261 269 274
210 205 205 210 217 222 218 197 180 165 146 137 131 135 150 163 171 167 121 76 81 97 123 131 123 129 112 95 74 69 72 69 76 84 85 85 84 83 85 86 89 95 97 101 106 105 110 121 114 99 92 102 115 112 47 7 20 25 90 313 345 79 274 301 330 90 126 271 303 110 233 269 266 282 288 220 230 232 245 257 256 257 259 258 260 262 271 279
180 184 188 193 195 187 175 165 152 138 129 135 146 149 162 173 182 192 184 102 83 92 81 80 124 137 102 84 60 65 77 81 84 84 83 88 93 92 89 88 92 98 101 102 104 102 108 113 98 86 90 100 93 76 47 25 351 357 84 236 294 304 296 313 333 95 104 285 290 205 233 280 276 301 353 195 233 243 247 260 262 260 263 261 263 265 271 279
144 157 164 165 165 161 157 149 133 124 128 136 143 139 136 148 150 161 161 138 110 101 83 90 118 99 66 75 63 52 69 83 82 80 83 88 93 94 87 83 91 103 109 109 107 105 103 98 100 91 66 55 37 78 72 353 304 322 25 103 258 250 259 303 308 298 23 325 263 246 234 254 268 290 286 258 252 248 248 261 267 266 266 269 269 263 265 274
125 133 139 142 146 147 143 138 130 129 145 147 142 127 109 118 136 142 146 142 127 120 112 107 125 93 54 50 51 45 57 70 77 83 93 98 94 92 84 75 95 115 115 107 91 78 74 70 99 87 26 32 23 64 117 225 202 190 126 118 304 314 252 258 267 295 11 339 252 251 257 262 272 279 279 281 273 251 250 260 268 269 267 269 269 256 257 266
115 120 127 134 137 139 138 139 139 145 155 155 146 134 114 104 109 121 162 183 226 136 139 34 66 123 100 42 48 59 62 64 75 89 108 116 97 88 80 65 87 127 118 87 29 38 52 52 69 65 18 1 350 78 149 199 155 148 155 152 212 284 271 256 255 274 3 320 266 230 246 274 287 286 284 292 285 253 251 258 262 265 264 262 261 253 252 256
105 113 124 131 134 138 141 142 139 141 147 151 153 152 142 112 88 77 120 119 85 92 103 77 85 106 101 57 53 69 70 64 63 87 116 127 125 108 71 55 69 79 63 18 349 18 47 63 64 155 197 230 246 199 176 170 129 129 120 137 206 229 274 265 263 305 1 329 272 243 263 281 286 287 294 302 289 244 244 250 255 259 259 256 254 253 251 250
105 115 126 133 139 145 150 148 136 132 136 143 165 198 256 245 206 116 104 89 82 89 89 85 87 87 78 60 56 73 77 67 58 74 109 115 140 146 15 39 75 55 7 319 305 16 55 80 119 217 205 213 237 228 222 155 113 107 123 168 254 230 256 259 239 316 8 21 279 328 328 292 287 290 304 311 246 224 241 241 252 259 255 253 253 254 248 245
107 112 120 126 140 155 167 168 156 151 157 181 238 257 268 217 165 151 124 96 84 85 82 84 83 77 73 58 51 65 74 67 53 55 102 122 97 110 44 61 80 67 348 356 63 31 44 89 219 231 219 209 12 31 104 140 89 81 121 161 259 252 274 297 335 331 3 21 277 346 344 297 295 294 308 328 187 246 269 243 254 261 254 256 255 249 232 225
106 102 101 101 135 172 188 195 203 222 241 261 259 231 172 136 132 134 125 109 92 75 70 74 71 66 64 52 48 59 72 61 38 36 57 125 86 74 89 75 75 62 360 16 115 91 58 237 232 218 47 60 17 23 90 109 66 73 115 142 239 295 345 300 317 332 331 254 258 322 324 291 309 313 320 4 195 311 344 253 249 248 255 264 253 233 213 215
108 99 87 81 113 188 198 206 219 234 255 252 210 177 156 137 125 122 116 106 91 65 59 55 53 53 52 52 48 58 72 62 37 29 41 89 103 79 87 87 73 56 3 24 113 105 84 292 303 53 48 83 53 359 74 115 359 348 152 147 217 300 316 251 294 332 325 301 261 334 345 305 331 340 312 333 347 330 352 266 238 236 251 263 254 231 216 223
116 102 87 77 77 153 186 193 199 183 136 145 155 156 154 144 123 117 100 82 63 7 29 32 32 40 47 45 33 54 75 60 42 35 42 71 94 102 97 75 66 87 283 48 88 90 68 353 17 56 41 66 107 345 61 144 211 308 222 168 164 197 229 289 329 350 8 37 340 19 40 300 318 340 289 309 349 325 305 280 252 247 250 251 254 244 230 236
131 112 93 76 73 104 149 161 162 155 130 133 150 155 160 175 212 197 90 67 42 317 347 12 14 25 33 18 5 58 80 42 40 38 43 62 78 124 111 47 52 129 195 114 86 102 73 30 46 84 75 59 66 341 235 145 132 296 219 164 137 128 115 5 7 23 47 350 313 40 94 253 321 331 281 307 337 317 314 304 277 263 250 248 249 251 254 263
155 137 109 73 78 90 107 137 157 166 149 142 161 176 205 253 249 210 55 51 15 307 350 338 356 19 19 16 15 84 94 356 47 37 40 54 49 116 116 29 59 91 160 134 87 48 69 41 37 57 73 64 52 317 213 136 129 249 188 127 109 91 97 71 52 54 290 277 322 11 83 145 308 285 274 306 336 328 335 321 304 293 259 257 251 245 247 250
181 173 153 90 75 52 42 148 192 206 195 188 185 212 249 250 214 209 88 81 322 330 32 330 71 61 29 34 40 72 95 52 76 27 33 49 40 93 99 113 129 112 58 119 186 283 50 34 26 64 60 56 222 237 185 145 139 262 190 124 107 110 131 119 74 24 306 337 321 329 19 93 266 277 305 350 47 345 342 339 340 2 34 309 160 161 149 127
202 203 202 228 270 305 300 256 272 266 251 261 229 231 244 212 214 350 77 113 289 21 62 359 100 34 357 35 40 47 67 48 53 13 25 50 52 79 90 108 127 112 43 64 142 189 65 25 178 128 90 270 239 245 193 154 304 261 154 87 59 73 86 81 71 45 6 50 244 292 352 53 272 287 321 26 87 246 274 310 338 21 80 104 119 126 124 106
212 218 228 250 263 275 276 268 273 267 263 260 221 203 193 184 146 59 55 210 229 15 325 337 258 310 347 29 21 20 50 39 26 34 51 71 71 82 99 110 117 104 41 42 82 148 12 71 125 106 142 223 193 212 218 149 226 187 81 53 39 39 54 62 47 68 57 9 250 276 335 48 299 286 244 185 183 188 188 243 280 247 111 117 116 116 121 113
212 222 236 252 260 267 269 270 270 252 246 231 193 172 169 162 69 83 111 233 133 334 340 6 302 351 26 73 37 3 23 14 6 28 50 57 54 64 89 103 77 65 28 22 43 342 350 50 353 355 208 203 111 87 16 26 24 66 64 57 47 355 21 38 356 33 87 268 263 282 316 58 203 263 238 236 250 196 170 181 203 194 153 130 117 109 110 103
218 228 241 252 257 262 257 260 267 227 209 191 177 170 150 50 11 99 274 320 12 302 335 352 316 32 41 53 40 343 346 5 8 40 64 43 43 30 54 163 181 44 356 309 43 344 325 265 300 331 211 157 107 74 347 10 36 62 63 61 66 346 360 9 314 355 156 247 267 314 325 295 225 244 239 245 252 219 192 171 166 174 159 136 125 120 115 106
240 241 252 256 253 254 247 243 235 198 187 170 175 170 93 74 233 218 270 359 345 286 90 49 359 64 58 39 15 324 328 5 356 34 77 93 66 31 323 200 153 96 210 192 117 8 324 277 317 339 227 150 121 157 325 340 25 67 110 93 87 65 49 309 279 313 278 261 284 322 320 287 268 265 228 231 239 214 194 167 149 153 148 138 138 136 131 119
270 255 266 270 257 246 232 212 196 179 168 165 169 134 74 93 215 196 241 247 249 349 43 69 38 41 48 67 296 290 91 357 332 31 21 25 59 42 294 320 15 95 112 126 158 150 155 264 255 181 222 109 137 198 184 178 282 260 182 138 112 136 136 227 245 210 261 279 302 315 293 191 200 310 236 240 251 198 176 164 147 148 150 146 144 143 143 129
302 296 285 334 7 235 164 168 177 163 163 170 117 73 129 227 230 177 223 233 214 9 14 46 68 58 16 337 312 310 134 265 332 50 29 26 138 177 214 267 287 101 119 134 223 146 151 244 244 317 275 129 159 235 123 100 240 236 174 98 58 148 135 134 187 185 198 316 304 285 227 218 213 300 293 303 293 167 167 168 153 147 150 146 149 153 150 150
319 314 316 24 45 78 134 161 167 161 170 162 69 70 195 224 205 178 196 158 142 147 127 43 60 80 326 307 336 2 36 302 8 51 17 3 177 189 203 234 244 98 133 151 201 162 108 263 288 360 345 123 124 262 91 120 233 212 103 67 226 151 119 111 190 298 72 60 284 267 259 297 343 297 311 10 46 239 221 193 166 144 140 142 153 160 160 189
323 313 337 41 43 87 153 167 162 169 176 125 82 196 216 217 164 187 200 75 134 130 113 112 91 143 215 259 295 316 344 311 343 34 239 284 188 180 188 248 236 220 178 137 178 195 147 264 283 70 158 246 174 337 331 218 188 90 109 218 222 122 99 105 107 1 39 18 282 328 293 296 348 255 308 17 190 244 261 242 166 137 147 156 161 166 181 197
278 264 149 68 57 123 154 159 159 167 152 91 78 249 206 173 219 215 199 106 125 94 101 149 200 190 185 181 248 280 74 260 316 28 190 259 221 162 144 216 239 240 261 104 81 280 127 286 293 214 172 293 341 59 338 303 195 164 179 190 101 137 124 51 88 51 24 322 291 314 305 259 208 221 254 213 200 215 232 227 149 145 163 172 172 175 186 187
224 223 165 60 74 131 139 145 158 159 118 90 218 247 175 195 251 171 168 173 140 105 129 188 155 56 163 165 187 215 158 203 205 118 181 195 233 177 137 162 198 188 226 112 111 288 93 84 289 260 189 339 19 75 240 256 356 47 25 347 354 153 164 122 90 154 166 244 277 315 331 281 233 214 195 208 209 193 190 189 171 172 173 176 178 180 186 186
212 189 111 65 104 137 145 145 151 140 98 132 204 204 291 239 214 168 156 161 174 137 175 194 144 118 193 197 208 186 131 179 171 156 233 205 196 252 167 129 150 165 201 61 109 357 48 94 259 292 316 291 270 226 199 182 167 108 58 330 299 92 150 162 354 90 129 155 190 258 312 276 248 209 182 209 219 192 180 175 179 179 170 168 173 172 187 193
198 136 44 96 120 144 151 136 102 86 95 139 209 186 294 191 177 179 170 177 204 155 154 159 145 155 175 183 228 193 144 150 170 170 231 211 187 246 231 126 134 136 97 73 91 245 84 142 207 288 311 233 244 252 191 169 171 162 165 192 182 147 125 117 319 319 96 137 173 156 268 272 259 215 198 221 230 203 187 173 174 179 167 157 157 155 183 201
168 113 16 121 142 155 149 115 31 49 106 140 169 155 182 165 162 183 186 190 197 124 102 121 126 138 158 165 194 172 149 155 187 194 219 206 192 199 172 130 134 140 121 136 249 227 164 103 112 258 244 228 270 277 160 169 155 143 183 219 144 131 123 122 210 260 112 104 146 115 251 268 265 234 227 259 257 190 184 171 164 170 168 156 148 153 201 212
155 144 148 143 162 164 137 75 358 16 55 118 125 136 152 170 175 179 197 209 191 148 90 106 124 124 181 187 141 159 180 189 183 185 212 219 213 200 175 145 157 153 126 147 263 186 125 83 62 289 297 315 328 1 121 133 80 136 247 214 151 165 139 140 173 183 148 179 157 92 279 266 276 289 275 289 73 156 175 179 172 172 172 156 151 220 233 219
141 143 153 121 186 190 170 160 194 277 307 351 39 47 240 248 215 181 211 221 192 161 147 164 188 164 184 132 107 156 204 199 189 194 200 194 179 168 171 161 181 174 167 215 150 139 211 144 94 13 345 342 346 355 343 324 235 226 241 205 185 147 110 123 138 80 278 222 157 138 247 255 271 313 327 10 75 114 167 187 193 195 196 206 231 236 230 219
137 142 197 35 169 199 201 190 159 147 168 104 54 206 202 270 223 212 231 217 192 168 145 157 166 133 120 92 80 80 32 51 203 190 68 192 210 164 162 181 214 198 208 227 151 145 196 199 127 121 153 264 273 278 268 251 239 243 216 196 204 164 138 154 116 91 245 235 155 166 229 261 280 300 318 314 356 330 246 166 188 247 277 287 263 228 220 215
150 152 283 354 304 197 181 189 150 131 149 156 153 208 168 147 245 235 221 201 207 181 136 124 148 120 85 107 105 71 317 355 24 96 182 223 244 289 173 189 220 192 175 160 158 124 114 220 195 164 182 199 198 217 221 159 150 222 219 208 202 185 152 122 114 168 198 175 194 215 205 279 286 262 198 244 279 292 280 284 292 294 301 299 250 215 210 201
151 176 197 142 282 66 90 92 136 131 154 171 177 181 169 175 297 244 214 231 224 186 148 59 159 163 166 163 144 169 239 350 16 191 207 204 219 310 275 215 202 216 193 168 191 111 90 282 235 183 215 226 197 206 215 141 199 223 225 223 202 184 156 151 187 205 155 132 252 243 182 228 270 253 181 218 259 284 283 287 293 298 308 302 222 201 199 191
134 192 187 154 183 187 106 67 139 122 118 148 163 142 154 172 193 188 203 224 226 198 182 298 249 211 192 175 156 157 175 358 297 224 186 169 187 34 349 252 230 223 211 195 216 137 118 237 229 184 252 263 227 226 219 188 232 234 227 230 210 182 179 196 215 201 157 188 247 237 164 206 256 270 238 216 228 263 277 282 288 293 300 283 209 193 191 187
128 135 155 160 181 179 158 143 129 122 100 82 99 145 162 181 211 221 181 110 314 249 191 219 257 232 202 185 141 147 178 177 239 235 188 154 182 150 120 238 228 222 212 184 227 165 148 229 220 160 286 288 264 248 214 198 246 267 250 239 213 199 205 211 224 210 191 233 254 250 236 253 261 266 270 272 268 267 274 280 282 282 285 253 210 199 190 173
160 151 161 161 146 129 137 133 119 118 81 46 141 210 176 176 201 224 174 156 187 242 184 213 251 224 187 173 146 180 211 180 148 245 190 151 157 203 196 195 172 158 309 173 189 150 175 242 211 105 325 294 290 343 114 182 216 250 264 256 222 218 227 226 232 221 206 245 258 260 274 276 269 246 256 275 276 265 265 265 259 262 294 262 218 197 181 163
194 184 169 155 140 125 136 126 107 111 75 252 195 205 198 201 200 182 177 203 193 177 188 202 206 141 108 156 193 233 240 191 132 291 192 162 168 207 217 203 156 141 161 191 173 142 165 233 17 77 13 283 307 26 29 20 234 257 270 262 233 219 221 217 216 201 198 220 235 230 245 260 263 217 226 259 262 243 245 248 250 278 305 295 235 183 171 163
203 191 182 157 142 185 163 111 80 110 225 226 189 187 211 228 198 167 163 252 212 194 214 205 176 121 91 182 224 246 248 186 93 28 144 174 311 202 196 187 157 147 167 170 139 153 156 148 138 117 181 271 301 356 14 19 356 279 261 246 225 212 212 227 237 212 204 200 187 197 222 236 232 146 183 242 246 238 252 270 286 293 294 294 221 170 166 162